DW1920 Weather Reports


time (UTC)temp
C
wind
direction
speed
KPH
gust
KPH
rain 1hr
cm
rain 24hr
cm
rain mn
cm
humidity
%
barometer
mb
20171218090000 -9 10 8.0 11.3 0.00 0.00 0.00 71 1023.0
20171218085000 -9 11 9.7 12.9 0.00 0.00 0.00 70 1023.1
20171218084000 -9 13 8.0 12.9 0.00 0.00 0.00 69 1023.2
20171218083000 -10 17 9.7 14.5 0.00 0.00 0.00 68 1023.3
20171218081959 -10 354 9.7 12.9 0.00 0.00 0.00 65 1023.6
20171218081000 -10 344 9.7 12.9 0.00 0.00 0.00 64 1023.4
20171218080000 -10 357 8.0 12.9 0.00 0.00 0.00 63 1023.5
20171218074959 -10 7 9.7 12.9 0.00 0.00 0.00 63 1023.4
20171218074000 -10 10 9.7 16.1 0.00 0.00 0.00 63 1023.3
20171218073000 -10 9 9.7 14.5 0.00 0.00 0.00 64 1023.4
20171218072000 -10 25 8.0 17.7 0.00 0.00 0.00 63 1023.6
20171218071000 -10 343 12.9 17.7 0.00 0.00 0.00 64 1023.8
20171218070000 -10 345 9.7 17.7 0.00 0.00 0.00 65 1023.9
20171218065000 -10 332 11.3 16.1 0.00 0.00 0.00 63 1024.2
20171218063959 -10 341 9.7 12.9 0.00 0.00 0.00 61 1024.0
20171218063000 -9 351 8.0 12.9 0.00 0.00 0.00 61 1023.8
20171218062000 -9 2 6.4 14.5 0.00 0.00 0.00 61 1023.5
20171218061000 -10 356 9.7 22.5 0.00 0.00 0.00 62 1023.4
20171218060000 -10 338 14.5 22.5 0.00 0.00 0.00 64 1023.3
20171218055000 -10 341 12.9 19.3 0.00 0.00 0.00 65 1023.5
20171218054000 -10 355 9.7 14.5 0.00 0.00 0.00 65 1023.6
20171218053000 -10 4 8.0 22.5 0.00 0.00 0.00 64 1023.5
20171218052000 -10 332 14.5 24.1 0.00 0.00 0.00 63 1023.7
20171218051000 -9 331 12.9 19.3 0.00 0.00 0.00 63 1023.7
20171218045959 -9 341 12.9 22.5 0.00 0.00 0.00 62 1023.7
20171218045000 -9 340 9.7 16.1 0.00 0.00 0.00 61 1023.7
20171218043959 -9 332 11.3 16.1 0.00 0.00 0.00 62 1023.8
20171218043000 -9 349 9.7 14.5 0.00 0.00 0.00 62 1023.8
20171218042000 -9 344 8.0 16.1 0.00 0.00 0.00 63 1024.2
20171218041000 -9 352 6.4 14.5 0.00 0.00 0.00 64 1024.2
20171218040000 -9 352 6.4 12.9 0.00 0.00 0.00 65 1024.3
20171218035000 -9 347 8.0 11.3 0.00 0.00 0.00 66 1024.7
20171218034000 -9 9 6.4 12.9 0.00 0.00 0.00 66 1024.7
20171218033000 -8 357 8.0 14.5 0.00 0.00 0.00 66 1024.6
20171218032000 -8 341 9.7 22.5 0.00 0.00 0.00 66 1024.6
20171218031000 -8 339 12.9 19.3 0.00 0.00 0.00 66 1024.8
20171218030000 -8 329 11.3 16.1 0.00 0.00 0.00 65 1024.6
20171218025000 -8 348 9.7 16.1 0.00 0.00 0.00 64 1024.6
20171218023959 -8 337 14.5 25.7 0.00 0.00 0.00 64 1024.5
20171218023000 -9 310 17.7 25.7 0.00 0.00 0.00 63 1024.6
20171218022000 -8 325 14.5 20.9 0.00 0.00 0.00 62 1024.4
20171218021000 -8 333 11.3 17.7 0.00 0.00 0.00 62 1024.4
20171218020000 -8 346 11.3 16.1 0.00 0.00 0.00 62 1024.6
20171218015000 -8 335 8.0 20.9 0.00 0.00 0.00 63 1024.8
20171218014000 -8 344 12.9 17.7 0.00 0.00 0.00 62 1025.2
20171218012959 -8 338 9.7 17.7 0.00 0.00 0.00 63 1025.0
20171218012000 -8 341 11.3 16.1 0.00 0.00 0.00 62 1025.1
20171218011001 -8 342 11.3 24.1 0.00 0.00 0.00 61 1024.8
20171218010000 -8 345 11.3 19.3 0.00 0.00 0.00 61 1024.9
20171218005000 -8 340 11.3 19.3 0.00 0.00 0.00 61 1024.7
20171218004000 -8 343 11.3 22.5 0.00 0.00 0.00 61 1024.5
20171218003000 -8 341 12.9 25.7 0.00 0.00 0.00 61 1024.5
20171218002000 -7 336 14.5 30.6 0.00 0.00 0.00 61 1024.2
20171218001000 -7 331 19.3 27.4 0.00 0.00 0.00 59 1024.1
20171218000000 -7 330 17.7 32.2 0.00 0.00 0.00 59 1023.9
20171217235001 -7 322 11.3 25.7 0.00 0.00 0.00 62 1024.0
20171217234000 -7 332 12.9 38.6 0.00 0.00 0.00 60 1023.7
20171217233000 -7 327 17.7 37.0 0.00 0.00 0.00 59 1023.7
20171217232000 -7 333 22.5 37.0 0.00 0.00 0.00 58 1023.4
20171217231000 -7 321 17.7 40.2 0.00 0.00 0.00 58 1023.5
20171217230000 -7 335 17.7 37.0 0.00 0.00 0.00 58 1023.5
20171217225000 -7 333 19.3 37.0 0.00 0.00 0.00 58 1023.4
20171217224001 -7 331 25.7 40.2 0.00 0.00 0.00 56 1023.3
20171217223000 -7 326 19.3 35.4 0.00 0.00 0.00 56 1023.2
20171217222000 -6 320 19.3 33.8 0.00 0.00 0.00 57 1023.4
20171217221000 -6 321 17.7 32.2 0.00 0.00 0.00 55 1023.4
20171217220000 -6 312 16.1 27.4 0.00 0.00 0.00 55 1023.3
20171217215000 -6 328 19.3 27.4 0.00 0.00 0.00 54 1023.0
20171217214000 -6 314 16.1 25.7 0.00 0.00 0.00 54 1023.0
20171217213000 -6 306 12.9 30.6 0.00 0.00 0.00 56 1022.9
20171217212000 -6 303 17.7 32.2 0.00 0.00 0.00 54 1022.6
20171217211000 -6 312 16.1 29.0 0.00 0.00 0.00 53 1022.7
20171217205959 -6 303 17.7 30.6 0.00 0.00 0.00 51 1022.5
20171217205000 -5 326 16.1 25.7 0.00 0.00 0.00 52 1022.5
20171217204000 -5 313 12.9 41.8 0.00 0.00 0.00 51 1022.3
20171217203000 -5 326 25.7 38.6 0.00 0.00 0.00 47 1022.2
20171217202001 -5 322 17.7 45.1 0.00 0.00 0.00 49 1022.0
20171217201001 -5 325 20.9 38.6 0.00 0.00 0.00 50 1022.0
20171217200000 -5 312 16.1 35.4 0.00 0.00 0.00 48 1022.1
20171217195000 -5 318 20.9 41.8 0.00 0.00 0.00 48 1022.2
20171217194000 -5 306 27.4 38.6 0.00 0.00 0.00 47 1022.1
20171217193000 -5 304 19.3 40.2 0.00 0.00 0.00 50 1022.0
20171217192001 -5 329 16.1 41.8 0.00 0.00 0.00 46 1021.9
20171217191000 -4 314 22.5 35.4 0.00 0.00 0.00 48 1021.7
20171217190000 -4 300 22.5 35.4 0.00 0.00 0.00 47 1021.7
20171217185000 -4 329 19.3 43.5 0.00 0.00 0.00 49 1021.8
20171217184000 -4 305 19.3 38.6 0.00 0.00 0.00 48 1021.5
20171217183000 -5 318 20.9 30.6 0.00 0.00 0.00 50 1021.8
20171217182000 -5 322 19.3 35.4 0.00 0.00 0.00 50 1021.9
20171217181000 -4 298 24.1 35.4 0.00 0.00 0.00 50 1021.8
20171217180000 -5 283 19.3 32.2 0.00 0.00 0.00 52 1022.0
20171217175000 -5 293 14.5 29.0 0.00 0.00 0.00 53 1022.1
20171217174001 -5 297 16.1 29.0 0.00 0.00 0.00 54 1022.1
20171217173000 -5 332 9.7 24.1 0.00 0.00 0.00 53 1022.0
20171217172000 -4 332 19.3 30.6 0.00 0.00 0.00 54 1022.1
20171217171000 -4 314 17.7 27.4 0.00 0.00 0.00 55 1022.1
20171217170000 -4 318 17.7 27.4 0.00 0.00 0.00 55 1022.1
20171217165001 -4 294 19.3 29.0 0.00 0.00 0.00 53 1021.9
20171217164000 -4 311 14.5 25.7 0.00 0.00 0.00 54 1022.1
20171217163000 -4 297 12.9 22.5 0.00 0.00 0.00 56 1022.2
20171217162001 -5 299 17.7 27.4 0.00 0.00 0.00 54 1022.1
20171217161000 -5 309 12.9 19.3 0.00 0.00 0.00 57 1022.3
20171217160000 -5 288 16.1 25.7 0.00 0.00 0.00 54 1022.5
20171217155001 -5 305 14.5 19.3 0.00 0.00 0.00 56 1022.8
20171217154000 -5 313 14.5 25.7 0.00 0.00 0.00 57 1022.8
20171217153000 -5 314 16.1 22.5 0.00 0.00 0.00 58 1022.9
20171217152000 -5 302 14.5 25.7 0.00 0.00 0.00 57 1023.0
20171217151000 -5 328 17.7 29.0 0.00 0.00 0.00 57 1023.1
20171217150000 -5 331 19.3 32.2 0.00 0.00 0.00 57 1023.3
20171217145000 -5 317 16.1 25.7 0.00 0.00 0.00 59 1022.9
20171217144000 -6 332 14.5 25.7 0.00 0.00 0.00 62 1023.0
20171217143001 -6 337 9.7 27.4 0.00 0.00 0.00 62 1023.3
20171217142000 -6 342 6.4 22.5 0.00 0.00 0.00 65 1023.0
20171217141000 -7 336 4.8 20.9 0.00 0.00 0.00 66 1022.9
20171217140000 -7 336 8.0 17.7 0.00 0.00 0.00 66 1022.7
20171217135000 -7 1 6.4 27.4 0.00 0.00 0.00 69 1022.6
20171217134000 -7 345 9.7 22.5 0.00 0.00 0.00 70 1022.7
20171217133000 -7 307 12.9 24.1 0.00 0.00 0.00 70 1022.8
20171217132000 -7 310 11.3 24.1 0.00 0.00 0.00 71 1023.0
20171217131001 -7 308 12.9 22.5 0.00 0.00 0.00 70 1023.2
20171217130000 -7 318 16.1 25.7 0.00 0.00 0.00 70 1023.0
20171217125000 -7 318 14.5 27.4 0.00 0.00 0.00 71 1023.0
20171217124000 -8 309 16.1 27.4 0.00 0.00 0.00 72 1022.8
20171217123000 -8 319 14.5 27.4 0.00 0.00 0.00 72 1022.8
20171217122000 -8 316 16.1 27.4 0.00 0.00 0.00 73 1022.8
20171217121000 -8 297 9.7 19.3 0.00 0.00 0.00 72 1022.9
20171217120001 -7 325 8.0 24.1 0.00 0.00 0.00 73 1022.7
20171217115000 -7 330 12.9 29.0 0.00 0.00 0.00 72 1022.7
20171217114000 -7 307 16.1 40.2 0.00 0.00 0.00 72 1022.4
20171217113001 -7 309 24.1 45.1 0.00 0.00 0.00 72 1022.3
20171217112000 -7 322 22.5 38.6 0.00 0.00 0.00 72 1022.0
20171217111000 -7 330 24.1 38.6 0.00 0.00 0.00 73 1022.0
20171217110000 -7 325 22.5 35.4 0.00 0.00 0.00 72 1021.9
20171217105000 -7 323 24.1 38.6 0.00 0.00 0.00 71 1021.7
20171217104001 -7 322 20.9 37.0 0.00 0.00 0.00 71 1021.5
20171217103000 -7 321 22.5 43.5 0.00 0.00 0.00 72 1021.4
20171217102000 -7 319 25.7 38.6 0.00 0.00 0.00 71 1021.1
20171217101000 -7 318 27.4 41.8 0.00 0.00 0.00 72 1021.1
20171217100001 -7 321 22.5 38.6 0.00 0.00 0.00 73 1021.0
20171217095001 -7 321 24.1 32.2 0.00 0.00 0.00 73 1021.1
20171217094000 -7 323 20.9 33.8 0.00 0.00 0.00 73 1020.9
20171217093001 -7 319 19.3 32.2 0.00 0.00 0.00 74 1020.7
20171217092008 -7 324 17.7 35.4 0.00 0.00 0.00 73 1020.8
20171217091000 -7 330 19.3 33.8 0.00 0.00 0.00 72 1020.7